Weather reports worldwide

Advertisment
San Clemente, Spain (8256): temperature & dewpoint: 13.07.2018 13:00:00 - 19.07.2018 13:00:00 (CEST)San Clemente, Spain (8256): wind speed & gusts: 13.07.2018 13:00:00 - 19.07.2018 13:00:00 (CEST)San Clemente, Spain (8256): wind direction: 13.07.2018 13:00:00 - 19.07.2018 13:00:00 (CEST)San Clemente, Spain (8256): reduced air pressure: 13.07.2018 13:00:00 - 19.07.2018 13:00:00 (CEST)San Clemente, Spain (8256): visibility: 13.07.2018 13:00:00 - 19.07.2018 13:00:00 (CEST)San Clemente, Spain (8256): sunshine duration: 13.07.2018 13:00:00 - 19.07.2018 13:00:00 (CEST)San Clemente, Spain (8256): precipitation: 13.07.2018 13:00:00 - 19.07.2018 13:00:00 (CEST)
Date & Time tt [°C] td [°C] ff [km/h] ff [kn] fx [km/h] fx [kn] dd ppp [hPa] vv [km] sd [min] rr [mm]
19.07.2018 13:00:00 30,7 9,0 18 10 32 18 NNW 1012,2 20 60 0,0
19.07.2018 12:00:00 29,1 8,8 16 9 24 13 NNW 1012,8 19 60 0,0
19.07.2018 11:00:00 26,6 8,1 8 4 16 9 NW 1013,6 19 60 0,0
19.07.2018 10:00:00 24,1 7,3 5 3 10 5 NW 1014,2 16 52 0,0
19.07.2018 09:00:00 20,9 11,6 3 2 8 5 E 1015,3 15 60 0,0
19.07.2018 08:00:00 16,4 10,5 5 3 12 7 E 1016,5 9 49 -
19.07.2018 07:00:00 13,3 8,5 11 6 13 7 E 1016,8 9 0 0,0
19.07.2018 06:00:00 14,4 8,5 8 4 13 7 E 1016,2 17 0 0,0
19.07.2018 05:00:00 15,2 8,3 8 4 13 7 E 1016,0 15 0 0,0
19.07.2018 04:00:00 15,9 7,1 8 5 13 7 E 1015,6 1,0 0 0,0
19.07.2018 03:00:00 17,8 7,3 6 3 8 4 E 1015,1 17 0 0,0
19.07.2018 02:00:00 20,3 8,3 4 2 11 6 SSW 1014,5 8 0 -
19.07.2018 01:00:00 21,3 3,9 8 5 14 7 SSW 1014,3 15 0 0,0
19.07.2018 00:00:00 22,0 3,0 5 3 6 3 ESE 1013,7 6 0 0,0
18.07.2018 23:00:00 23,9 3,2 3 1 10 5 E 1012,9 10 0 0,0
18.07.2018 22:00:00 27,3 3,0 8 5 14 7 NNE 1011,2 13 9 0,0
18.07.2018 21:00:00 30,8 3,8 13 7 29 16 N 1009,8 17 60 0,0
18.07.2018 20:00:00 32,8 4,5 21 11 31 17 N 1009,2 18 60 -
18.07.2018 19:00:00 33,4 5,0 16 9 35 19 NNW 1009,0 17 60 0,0
18.07.2018 18:00:00 33,9 5,5 15 8 36 19 NW 1009,1 18 60 0,0
18.07.2018 17:00:00 33,7 5,3 21 11 45 24 NNW 1009,3 13 60 0,0
18.07.2018 16:00:00 33,6 5,9 11 6 36 19 NW 1009,7 18 60 0,0
18.07.2018 15:00:00 32,7 6,1 19 10 31 17 NW 1010,6 20 60 0,0
18.07.2018 14:00:00 31,1 7,6 11 6 29 15 NW 1011,4 17 60 -
18.07.2018 13:00:00 29,7 8,1 16 9 29 16 NW 1012,5 19 60 0,0
18.07.2018 12:00:00 28,6 7,7 16 8 26 14 NW 1013,0 11 60 0,0
18.07.2018 11:00:00 26,7 8,1 6 3 16 9 W 1013,6 6 60 0,0
18.07.2018 10:00:00 24,5 9,7 10 5 21 11 SW 1014,3 20 54 0,0
18.07.2018 09:00:00 21,2 11,0 15 8 23 12 SW 1014,9 12 60 0,0
18.07.2018 08:00:00 19,3 11,8 7 4 25 13 WSW 1014,8 6 16 -
18.07.2018 07:00:00 19,3 10,3 13 7 30 16 SW 1014,5 19 0 0,0
18.07.2018 06:00:00 19,6 11,1 16 9 31 17 SSW 1013,9 16 0 0,0
18.07.2018 05:00:00 20,2 10,6 16 8 33 18 SSW 1013,9 20 0 0,0
18.07.2018 04:00:00 20,8 10,3 23 12 39 21 SSW 1013,2 20 0 0,0
18.07.2018 03:00:00 21,5 10,6 22 12 40 22 SSW 1013,1 18 0 0,0
18.07.2018 02:00:00 22,5 7,1 23 12 43 23 SSW 1013,1 18 0 -
18.07.2018 01:00:00 23,3 7,8 21 12 45 24 SSW 1013,0 19 0 0,0
18.07.2018 00:00:00 24,4 7,1 28 15 50 27 SSW 1012,6 18 0 0,0
17.07.2018 23:00:00 25,2 8,3 22 12 45 24 SSW 1012,4 18 0 0,0
17.07.2018 22:00:00 27,1 8,0 20 11 36 20 SW 1011,2 19 13 0,0
17.07.2018 21:00:00 29,6 6,8 19 11 40 22 SW 1010,0 9 60 0,0
17.07.2018 20:00:00 31,6 7,3 23 12 39 21 SW 1009,2 17 60 -
17.07.2018 19:00:00 32,9 7,0 20 11 38 21 SW 1008,6 18 60 0,0
17.07.2018 18:00:00 33,9 5,5 17 9 39 21 SSW 1008,8 17 60 0,0
17.07.2018 17:00:00 33,8 5,3 14 8 31 17 SSW 1009,6 16 60 0,0
17.07.2018 16:00:00 32,8 4,5 11 6 32 18 SSW 1010,6 17 60 0,0
17.07.2018 15:00:00 32,6 5,1 12 6 - - SW 1011,4 20 60 0,0
17.07.2018 14:00:00 31,7 6,7 9 5 33 18 WSW 1012,2 16 60 -
17.07.2018 13:00:00 30,4 7,6 19 11 31 17 SW 1013,3 9 60 0,0
17.07.2018 12:00:00 28,2 8,9 14 8 27 14 SSW 1014,3 20 60 0,0
17.07.2018 11:00:00 26,2 10,4 16 8 29 15 SW 1015,0 14 60 0,0
17.07.2018 10:00:00 24,1 10,4 15 8 - - SSW 1015,9 14 52 0,0
17.07.2018 09:00:00 22,6 10,8 11 6 20 11 S 1016,5 18 60 0,0
17.07.2018 08:00:00 18,8 10,0 7 4 13 7 ESE 1017,6 7 51 -
17.07.2018 07:00:00 15,8 9,0 5 3 10 5 E 1018,5 8 0 0,0
17.07.2018 06:00:00 16,5 9,2 5 3 14 8 ESE 1017,8 6 0 0,0
17.07.2018 05:00:00 17,5 9,4 10 5 15 8 E 1017,3 18 0 0,0
17.07.2018 04:00:00 17,9 8,4 11 6 16 8 E 1017,3 16 0 0,0
17.07.2018 03:00:00 17,6 6,4 10 5 17 9 E 1017,8 18 0 0,0
17.07.2018 02:00:00 18,0 5,6 11 6 14 8 E 1017,8 17 0 -
17.07.2018 01:00:00 19,6 5,3 10 5 14 7 ESE 1017,5 18 0 0,0
17.07.2018 00:00:00 20,9 5,6 8 4 16 9 E 1017,0 17 0 0,0
16.07.2018 23:00:00 23,1 5,9 10 6 13 7 NNE 1016,3 19 0 0,0
16.07.2018 22:00:00 23,9 4,8 9 5 15 8 N 1015,6 17 15 0,0
16.07.2018 21:00:00 27,8 5,3 13 7 27 15 N 1014,2 20 60 0,0
16.07.2018 20:00:00 29,3 4,6 15 8 - - NNE 1013,6 19 60 -
16.07.2018 19:00:00 29,6 5,6 16 9 - - NNE 1013,2 16 60 0,0
16.07.2018 18:00:00 29,6 5,6 18 10 - - N 1013,5 4,2 60 0,0
16.07.2018 17:00:00 29,6 5,6 18 10 - - N 1013,8 18 60 0,0
16.07.2018 16:00:00 28,6 5,5 - - - - - 1014,3 18 60 0,0
16.07.2018 15:00:00 28,3 6,4 20 11 39 21 NNE 1014,8 20 60 0,0
16.07.2018 14:00:00 26,6 7,6 17 9 39 21 NNE 1015,4 17 60 -
16.07.2018 13:00:00 25,6 9,0 24 13 46 25 NNE 1016,0 20 60 0,0
16.07.2018 12:00:00 23,4 9,8 22 12 41 22 N 1016,5 16 60 0,0
16.07.2018 11:00:00 21,7 9,6 22 12 37 20 N 1016,9 16 60 0,0
16.07.2018 10:00:00 19,7 9,6 24 13 35 19 N 1017,5 17 52 0,0
16.07.2018 09:00:00 17,7 8,5 22 12 31 17 N 1017,8 18 60 0,0
16.07.2018 08:00:00 14,8 8,1 9 5 15 8 N 1018,6 15 53 -
16.07.2018 07:00:00 13,3 6,4 10 6 - - N 1018,5 17 0 0,0
16.07.2018 06:00:00 14,0 6,1 6 3 15 8 N 1017,7 17 0 0,0
16.07.2018 05:00:00 14,3 5,6 9 5 - - N 1017,7 20 0 0,0
16.07.2018 04:00:00 16,4 6,2 - - - - - 1017,2 19 0 0,0
16.07.2018 03:00:00 17,2 6,7 - - - - - 1016,9 20 0 0,0
16.07.2018 02:00:00 18,6 6,7 7 4 17 9 N 1016,6 20 0 -
16.07.2018 01:00:00 19,8 7,1 12 6 22 12 N 1016,2 18 0 0,0
16.07.2018 00:00:00 21,5 8,0 14 8 29 16 NNE 1015,0 18 0 0,0
15.07.2018 23:00:00 23,0 7,8 16 9 27 15 NNE 1014,2 20 0 0,0
15.07.2018 22:00:00 24,3 5,6 15 8 30 16 N 1012,7 18 13 0,0
15.07.2018 21:00:00 27,2 3,6 23 12 39 21 N 1011,2 18 60 0,0
15.07.2018 20:00:00 29,4 2,7 26 14 42 23 N 1010,4 19 60 -
15.07.2018 19:00:00 29,3 1,7 27 14 40 22 NNW 1010,7 20 54 0,0
15.07.2018 18:00:00 29,6 4,3 24 13 40 22 NNW 1011,2 20 35 0,0
15.07.2018 17:00:00 29,2 4,6 25 13 41 22 N 1011,5 15 57 0,0
15.07.2018 16:00:00 30,0 5,3 18 10 - - N 1011,6 18 60 0,0
15.07.2018 15:00:00 29,9 5,1 16 8 35 19 NNW 1012,0 18 60 0,0
15.07.2018 14:00:00 28,8 6,8 14 8 30 16 NNW 1013,2 14 60 -
15.07.2018 13:00:00 27,6 5,1 16 8 28 15 NNW 1014,2 20 60 0,0
15.07.2018 12:00:00 25,7 9,6 13 7 26 14 NNW 1015,1 17 60 0,0
15.07.2018 11:00:00 23,9 8,3 10 5 22 12 N 1015,9 20 60 0,0
15.07.2018 10:00:00 22,1 7,8 16 9 23 13 NNW 1016,7 16 53 0,0
15.07.2018 09:00:00 20,1 9,3 9 5 - - N 1017,1 15 60 0,0
15.07.2018 08:00:00 17,0 6,8 4 2 - - E 1017,7 3,7 27 -
15.07.2018 07:00:00 15,7 5,6 3 2 - - SSE 1017,9 6 0 0,0
15.07.2018 06:00:00 17,0 4,6 7 4 14 7 N 1017,6 18 0 0,0
15.07.2018 05:00:00 18,4 5,0 11 6 13 7 N 1016,8 17 0 0,0
15.07.2018 04:00:00 18,8 3,4 6 4 11 6 N 1017,1 18 0 0,0
15.07.2018 03:00:00 19,1 2,5 10 5 12 7 NW 1017,2 18 0 0,0
15.07.2018 02:00:00 20,1 1,5 7 4 9 5 N 1017,1 18 0 -
15.07.2018 01:00:00 20,7 0,4 9 5 13 7 N 1016,7 17 0 0,0
15.07.2018 00:00:00 22,7 0,4 9 5 13 7 N 1015,8 18 0 0,0
14.07.2018 23:00:00 24,2 0,4 9 5 11 6 N 1015,0 18 0 0,0
14.07.2018 22:00:00 26,6 1,1 7 4 18 10 NNW 1013,4 18 18 0,0
14.07.2018 21:00:00 30,3 1,7 15 8 32 17 N 1011,8 18 60 0,0
14.07.2018 20:00:00 32,3 0,4 23 13 37 20 NNW 1011,4 20 60 -
14.07.2018 19:00:00 33,0 0,9 23 12 37 20 NNW 1011,3 14 60 0,0
14.07.2018 18:00:00 33,8 -2,0 20 11 43 23 NW 1011,6 19 60 0,0
14.07.2018 17:00:00 33,6 -1,0 23 12 41 22 NNW 1011,9 18 60 0,0
14.07.2018 16:00:00 33,8 2,7 21 11 45 24 NW 1012,0 17 60 0,0
14.07.2018 15:00:00 32,0 6,2 17 9 29 16 NW 1013,1 20 60 0,0
14.07.2018 14:00:00 30,1 7,8 18 10 29 15 NNW 1014,4 18 60 -
14.07.2018 13:00:00 29,3 8,9 17 9 27 15 NW 1015,0 16 60 0,0
14.07.2018 12:00:00 27,1 8,0 11 6 21 11 NNE 1015,4 19 60 0,0
14.07.2018 11:00:00 25,6 9,0 11 6 19 10 N 1016,1 17 60 0,0
14.07.2018 10:00:00 23,1 10,9 10 6 17 9 N 1016,5 16 53 0,0
14.07.2018 09:00:00 20,7 9,3 - - - - - 1017,1 14 52 0,0
14.07.2018 08:00:00 17,4 13,9 3 2 - - E 1017,5 7 41 -
14.07.2018 07:00:00 15,9 13,4 4 2 7 4 E 1017,4 10 0 0,0
14.07.2018 06:00:00 17,1 14,5 4 2 9 5 ESE 1016,7 9 0 0,0
14.07.2018 05:00:00 18,4 15,3 5 3 - - ESE 1016,5 13 0 0,0
14.07.2018 04:00:00 19,6 16,0 7 4 12 7 SSW 1015,9 14 0 0,0
14.07.2018 03:00:00 20,7 16,3 8 4 24 13 SSW 1015,8 14 0 0,0
14.07.2018 02:00:00 22,2 16,0 12 7 24 13 SW 1015,7 16 0 -
14.07.2018 01:00:00 22,7 16,0 15 8 31 17 SSW 1015,4 16 0 0,0
14.07.2018 00:00:00 23,6 15,6 16 9 36 19 SSW 1014,7 17 0 0,0
13.07.2018 23:00:00 24,8 16,0 20 11 45 25 S 1013,9 16 0 0,0
13.07.2018 22:00:00 26,6 16,6 20 11 35 19 S 1012,1 7 0 0,0
13.07.2018 21:00:00 28,4 15,7 18 10 31 17 S 1010,9 15 30 0,0
13.07.2018 20:00:00 29,6 15,0 16 9 29 16 S 1010,2 16 10 -
13.07.2018 19:00:00 30,8 13,2 13 7 29 16 S 1009,8 15 18 0,0
13.07.2018 18:00:00 31,4 11,2 12 6 31 17 SW 1010,1 15 23 0,0
13.07.2018 17:00:00 31,8 10,5 11 6 31 17 SSW 1010,1 15 53 0,0
13.07.2018 16:00:00 32,3 10,9 - - - - - 1010,4 14 60 0,0
13.07.2018 15:00:00 30,4 13,7 14 8 34 18 SSW 1011,3 14 60 0,0
13.07.2018 14:00:00 29,8 14,3 15 8 31 17 SSW 1011,9 16 60 -
13.07.2018 13:00:00 27,9 14,5 14 8 29 16 SW 1012,8 15 60 0,0

tt = temperature
td = dewpoint
ff = wind speed
fx = gusts
dd = wind direction
ppp = reduced air pressure
vv = visibility
sd = sunshine duration
rr = precipitation

Next stations